Hourly Data Report for May 19, 2021

WESTERN HEAD
NOVA SCOTIA
Current Station Operator: ECCC - MSC

43°59'24.070" N
64°39'51.008" W
10.10 m
8206240
71411
WWE

Download Data

Hourly Data (May 2021)
Hourly Data Report for May 19, 2021
TIME
LST
Temp Definition
°C
Dew Point Definition
°C
Rel Hum Definition
%
Precip. Amount Definition
mm

Wind Dir Definition
10's deg

Wind Spd Definition
km/h
Visibility Definition
km
Stn Press Definition
kPa
Hmdx Definition


Wind Chill Definition


Weather Definition


00:00 8.0 7.6 98 0.0 25 2   101.76     LegendNANA
01:00 7.9 7.8 99 0.0 3 5   101.76     LegendNANA
02:00 6.9 6.8 99 0.0 2 4   101.78     LegendNANA
03:00 6.3 6.3 100 0.0 34 6   101.80     LegendNANA
04:00 5.9 5.9 100 0.0 35 4   101.81     LegendNANA
05:00 8.0 8.0 100 0.0 33 7   101.88     LegendNANA
06:00 9.4 9.4 100 0.0 34 7   101.95     LegendNANA
07:00 12.0 8.0 77 0.0 35 11   101.96     LegendNANA
08:00 13.3 8.3 72 0.0 2 6   102.04     LegendNANA
09:00 15.2 7.9 61 0.0 36 10   102.02     LegendNANA
10:00 16.0 7.7 58 0.0 4 9   102.04     LegendNANA
11:00 12.1 7.9 76 0.0 9 10   102.11     LegendNANA
12:00 10.8 7.9 82 0.0 8 7   102.18     LegendNANA
13:00 11.5 7.6 77 0.0 7 5   102.22     LegendNANA
14:00 12.3 8.3 76 0.0 8 6   102.23     LegendNANA
15:00 13.4 7.3 67 0.0 35 13   102.28     LegendNANA
16:00 12.6 7.6 72 0.0 36 9   102.34     LegendNANA
17:00 11.3 7.5 77 0.0 5 8   102.42     LegendNANA
18:00 10.0 7.5 85 0.0 4 6   102.47     LegendNANA
19:00 10.6 7.4 81 0.0 1 5   102.50     LegendNANA
20:00 10.0 7.7 86 0.0 34 9   102.58     LegendNANA
21:00 10.2 7.8 85 0.0 35 12   102.65     LegendNANA
22:00 9.6 7.9 89 0.0 35 10   102.73     LegendNANA
23:00 9.4 8.0 91 0.0 36 7   102.79     LegendNANA

Notes on Data Quality.

Legend

  • E = Estimated
  • M = Missing
  • NA = Not Available*
  • [empty] = Indicates an unobserved value
Date modified: